logo tempoitalia

Diretta Meteo Cochstedt Arpt, Germanialunedì 31 agosto ore 07:20

Mappa
Sereno 15 °C Sereno 24 Ore: T.min 15 T.max 25
Ponente Sud Km/h 16.7 Punto di rugiada: 14 °C Umidità: 93% Visibilità: 10 Km
Il sole sorge alle: 06:24 Il sole tramonta alle: 20:04
31 Agosto 2026 07:20 tempo osservato: Sereno Sereno 15 93 1011 vento: Nord S 16.7
31 Agosto 2026 06:50 tempo osservato: Pioggia Pioggia 16 87 1011 vento: Nord S/SO 13
31 Agosto 2026 06:20 tempo osservato: Pioggia Pioggia 15 87 1011 vento: Nord SO 11.1
31 Agosto 2026 05:50 tempo osservato: Pioggia Pioggia 16 82 1011 vento: Nord SO 11.1
31 Agosto 2026 05:20 tempo osservato: Sereno Sereno 16 77 1011 vento: Nord SO 11.1
31 Agosto 2026 04:50 tempo osservato: Sereno Sereno 16 77 1011 vento: Nord S 11.1
31 Agosto 2026 04:20 tempo osservato: Sereno Sereno 16 77 1012 vento: Nord S 13
31 Agosto 2026 03:50 tempo osservato: Sereno Sereno 16 77 1012 vento: Nord S/SO 11.1
31 Agosto 2026 03:20 tempo osservato: Sereno Sereno 16 72 1012 vento: Nord S 11.1
31 Agosto 2026 02:50 tempo osservato: Sereno Sereno 16 72 1012 vento: Nord S 13
31 Agosto 2026 02:20 tempo osservato: Sereno Sereno 15 76 1012 vento: Nord S/SE 14.8
31 Agosto 2026 01:50 tempo osservato: Sereno Sereno 15 76 1013 vento: Nord S 13
31 Agosto 2026 01:20 tempo osservato: Sereno Sereno 16 77 1013 vento: Nord S/SO 11.1
31 Agosto 2026 00:50 tempo osservato: Sereno Sereno 16 77 1013 vento: Nord S 13
31 Agosto 2026 00:20 tempo osservato: Sereno Sereno 15 76 1013 vento: Nord S 11.1
30 Agosto 2026 23:50 tempo osservato: Sereno Sereno 16 72 1013 vento: Nord S/SO 11.1
30 Agosto 2026 23:20 tempo osservato: Sereno Sereno 16 72 1013 vento: Nord S 13
30 Agosto 2026 22:50 tempo osservato: Sereno Sereno 17 67 1013 vento: Nord S 7.4
30 Agosto 2026 22:20 tempo osservato: Sereno Sereno 18 63 1013 vento: Nord O/SO 9.3
30 Agosto 2026 21:50 tempo osservato: Sereno Sereno 18 63 1013 vento: Nord O/SO 7.4
30 Agosto 2026 21:20 tempo osservato: Sereno Sereno 19 59 1013 vento: Nord N 5.5
30 Agosto 2026 20:50 tempo osservato: Sereno Sereno 20 59 1013 vento: Nord N 5.5
30 Agosto 2026 20:20 tempo osservato: Sereno Sereno 20 56 1013 vento: Nord N 5.5
30 Agosto 2026 19:50 tempo osservato: Sereno Sereno 21 52 1013 vento: Nord O 9.3
30 Agosto 2026 19:20 tempo osservato: Sereno Sereno 22 49 1013 vento: Nord O/SO 20.3
30 Agosto 2026 18:50 tempo osservato: Sereno Sereno 22 49 1012 vento: Nord O/SO 25.9
30 Agosto 2026 18:20 tempo osservato: Sereno Sereno 22 49 1012 vento: Nord O 29.6
30 Agosto 2026 17:50 tempo osservato: Sereno Sereno 23 46 1012 vento: Nord O 33.3
30 Agosto 2026 17:20 tempo osservato: Sereno Sereno 23 46 1012 vento: Nord O 27.8
30 Agosto 2026 16:50 tempo osservato: Sereno Sereno 23 46 1012 vento: Nord O 27.8
30 Agosto 2026 16:20 tempo osservato: Sereno Sereno 24 41 1012 vento: Nord O 37
30 Agosto 2026 15:50 tempo osservato: Sereno Sereno 25 41 1012 vento: Nord O 25.9
30 Agosto 2026 15:20 tempo osservato: Sereno Sereno 25 41 1011 vento: Nord O 29.6
30 Agosto 2026 14:50 tempo osservato: Sereno Sereno 25 38 1011 vento: Nord O 27.8
30 Agosto 2026 14:20 tempo osservato: Sereno Sereno 24 43 1011 vento: Nord O 27.8
30 Agosto 2026 13:50 tempo osservato: Sereno Sereno 24 47 1011 vento: Nord O/SO 27.8
30 Agosto 2026 13:20 tempo osservato: Molto Nuvoloso Molto Nuvoloso 24 47 1011 vento: Nord O/SO 29.6
30 Agosto 2026 12:50 tempo osservato: Nuvoloso Nuvoloso 24 47 1011 vento: Nord O/SO 40.7
30 Agosto 2026 12:20 tempo osservato: Poco Nuvoloso Poco Nuvoloso 24 50 1011 vento: Nord O/SO 33.3
30 Agosto 2026 11:50 tempo osservato: Poco Nuvoloso Poco Nuvoloso 23 53 1011 vento: Nord O/SO 37
30 Agosto 2026 11:20 tempo osservato: Sereno Sereno 21 64 1011 vento: Nord S/SO 29.6
30 Agosto 2026 10:50 tempo osservato: Sereno Sereno 20 72 1011 vento: Nord S/SO 35.2
30 Agosto 2026 10:20 tempo osservato: Poco Nuvoloso Poco Nuvoloso 21 68 1011 vento: Nord SO 35.2
30 Agosto 2026 09:50 tempo osservato: Nuvoloso Nuvoloso 22 64 1010 vento: Nord SO 37
30 Agosto 2026 09:20 tempo osservato: Poco Nuvoloso Poco Nuvoloso 22 64 1010 vento: Nord SO 35.2
30 Agosto 2026 08:50 tempo osservato: Sereno Sereno 21 68 1010 vento: Nord SO 35.2
30 Agosto 2026 08:20 tempo osservato: Sereno Sereno 20 68 1010 vento: Nord S/SO 29.6
30 Agosto 2026 07:50 tempo osservato: Sereno Sereno 20 68 1010 vento: Nord S/SO 29.6